Change the Weather History Date:

Thursday, April 11, 2013

  Actual Average Record
Temperature  
Mean Temperature 72 °F -  
Max Temperature 88 °F 85 °F 100 °F (1989)
Min Temperature 55 °F 58 °F 41 °F (1967)
Cooling Degree Days 6    
Growing Degree Days 22 (Base 50)    
Moisture  
Dew Point 18 °F    
Average Humidity 14    
Maximum Humidity 21    
Minimum Humidity 8    
Precipitation  
Precipitation 0.00 in - - ()
Sea Level Pressure  
Sea Level Pressure 29.73 in    
Wind  
Wind Speed 4 mph (NNE)    
Max Wind Speed 12 mph    
Max Gust Speed 20 mph    
Visibility 10 miles    
Events      
Averages and records for this station are not official NWS values.
T = Trace of Precipitation, MM = Missing Value Source: NWS Daily Summary

Daily Weather History Graph

Daily Weather History Graph

Search for Another Location

Airport or City:

Trip Planner

Search our weather history database for the weather conditions in past years. The results will help you decide how hot, cold, wet, or windy it might be!

Date:

Astronomy

Apr. 11, 2013 Rise Set
Actual Time 6:11 AM PDT 7:07 PM PDT
Civil Twilight 5:45 AM PDT 7:33 PM PDT
Nautical Twilight 5:15 AM PDT 8:04 PM PDT
Astronomical Twilight 4:43 AM PDT 8:35 PM PDT
Moon 6:49 AM PDT (4/11) 8:41 PM PDT (4/11)
Length of Visible Light 13h 47m
Length of Day
12h 56m
New Moon, 2% of the Moon is Illuminated
Apr 11
New Moon
Apr 18
First Quarter
Apr 25
Full
May 2
Last Quarter
May 9
New

Hourly Weather History & Observations

Time (PDT) Temp. Dew Point Humidity Pressure Visibility Wind Dir Wind Speed Gust Speed Precip Events Conditions
12:56 AM 64.0 °F 16.0 °F 16% 29.87 in 10.0 mi Calm Calm - N/A   Clear
1:56 AM 61.0 °F 14.0 °F 16% 29.86 in 10.0 mi West 9.2 mph - N/A   Clear
2:56 AM 59.0 °F 15.1 °F 18% 29.84 in 10.0 mi Calm Calm - N/A   Clear
3:56 AM 55.9 °F 15.1 °F 20% 29.83 in 10.0 mi West 3.5 mph - N/A   Clear
4:56 AM 57.0 °F 15.1 °F 19% 29.81 in 10.0 mi West 8.1 mph - N/A   Clear
5:56 AM 55.0 °F 14.0 °F 20% 29.82 in 10.0 mi NNW 4.6 mph - N/A   Clear
6:56 AM 57.9 °F 16.0 °F 19% 29.82 in 10.0 mi WNW 4.6 mph - N/A   Clear
7:56 AM 61.0 °F 19.9 °F 21% 29.83 in 10.0 mi Calm Calm - N/A   Clear
8:56 AM 68.0 °F 18.0 °F 15% 29.81 in 10.0 mi East 3.5 mph - N/A   Clear
9:56 AM 72.0 °F 19.9 °F 14% 29.81 in 10.0 mi North 3.5 mph - N/A   Clear
10:56 AM 75.0 °F 18.0 °F 12% 29.80 in 10.0 mi Calm Calm - N/A   Clear
11:56 AM 80.1 °F 17.1 °F 9% 29.76 in 10.0 mi Calm Calm - N/A   Clear
12:56 PM 84.9 °F 17.1 °F 8% 29.73 in 10.0 mi NE 10.4 mph - N/A   Clear
1:56 PM 84.9 °F 19.9 °F 9% 29.70 in 10.0 mi NE 9.2 mph - N/A   Clear
2:56 PM 87.1 °F 19.0 °F 8% 29.67 in 10.0 mi NE 11.5 mph 19.6 mph N/A   Clear
3:56 PM 87.1 °F 19.0 °F 8% 29.64 in 10.0 mi NE 3.5 mph - N/A   Clear
4:56 PM 88.0 °F 19.0 °F 8% 29.62 in 10.0 mi ENE 8.1 mph - N/A   Clear
5:56 PM 86.0 °F 19.0 °F 8% 29.61 in 10.0 mi ESE 6.9 mph - N/A   Clear
6:56 PM 84.0 °F 19.9 °F 9% 29.61 in 10.0 mi ESE 5.8 mph - N/A   Clear
7:56 PM 78.1 °F 21.0 °F 12% 29.62 in 10.0 mi Calm Calm - N/A   Clear
8:56 PM 75.0 °F 19.0 °F 12% 29.63 in 10.0 mi SW 3.5 mph - N/A   Clear
9:56 PM 72.0 °F 19.0 °F 13% 29.63 in 10.0 mi Calm Calm - N/A   Clear
10:56 PM 71.1 °F 21.0 °F 15% 29.64 in 10.0 mi Calm Calm - N/A   Clear
11:56 PM 72.0 °F 21.0 °F 15% 29.64 in 10.0 mi Calm Calm - N/A   Clear